Time,TemperatureF,DewpointF,PressureIn,WindDirection,WindDirectionDegrees,WindSpeedMPH,WindSpeedGustMPH,Humidity,HourlyPrecipIn,Conditions,Clouds,dailyrainin,SoftwareType,DateUTC
2013-07-14 00:02:00,77.0,-99.9,29.96,SE,139,1.0,4.0,-999,-99.99,,,-99.99,,2013-07-14 05:02:00,
2013-07-14 00:11:00,77.0,-99.9,29.96,ESE,104,2.0,4.0,-999,-99.99,,,-99.99,,2013-07-14 05:11:00,
2013-07-14 00:23:00,77.0,-99.9,29.95,ESE,117,2.0,4.0,-999,-99.99,,,-99.99,,2013-07-14 05:23:00,
2013-07-14 00:32:00,77.0,-99.9,29.94,East,89,2.0,4.0,-999,-99.99,,,-99.99,,2013-07-14 05:32:00,
2013-07-14 00:43:00,77.0,-99.9,29.94,WSW,238,0.0,2.0,-999,-99.99,,,-99.99,,2013-07-14 05:43:00,
2013-07-14 00:53:00,77.0,-99.9,29.94,WNW,298,1.0,3.0,-999,-99.99,,,-99.99,,2013-07-14 05:53:00,
2013-07-14 01:01:00,77.0,-99.9,29.94,SW,223,1.0,2.0,-999,-99.99,,,-99.99,,2013-07-14 06:01:00,
2013-07-14 01:12:00,77.0,-99.9,29.94,East,101,1.0,5.0,-999,-99.99,,,-99.99,,2013-07-14 06:12:00,
2013-07-14 01:22:00,76.0,-99.9,29.93,North,-999,-999.0,-999.0,-999,-99.99,,,-99.99,,2013-07-14 06:22:00,
2013-07-14 01:32:00,76.0,-99.9,29.93,East,86,2.0,5.0,-999,-99.99,,,-99.99,,2013-07-14 06:32:00,
2013-07-14 01:42:00,76.0,-99.9,29.93,South,189,1.0,3.0,-999,-99.99,,,-99.99,,2013-07-14 06:42:00,
2013-07-14 01:53:00,76.0,-99.9,29.93,ENE,57,2.0,6.0,-999,-99.99,,,-99.99,,2013-07-14 06:53:00,
2013-07-14 02:02:00,75.0,-99.9,29.93,East,86,3.0,9.0,-999,-99.99,,,-99.99,,2013-07-14 07:02:00,
2013-07-14 02:12:00,75.0,-99.9,29.92,East,93,6.0,10.0,-999,-99.99,,,-99.99,,2013-07-14 07:12:00,
2013-07-14 02:22:00,75.0,-99.9,29.92,North,-999,-999.0,-999.0,-999,-99.99,,,-99.99,,2013-07-14 07:22:00,
2013-07-14 02:33:00,75.0,-99.9,29.92,East,89,3.0,7.0,-999,-99.99,,,-99.99,,2013-07-14 07:33:00,
2013-07-14 02:43:00,75.0,-99.9,29.92,East,97,4.0,8.0,-999,-99.99,,,-99.99,,2013-07-14 07:43:00,
2013-07-14 02:53:00,76.0,-99.9,29.91,East,94,5.0,8.0,-999,-99.99,,,-99.99,,2013-07-14 07:53:00,
2013-07-14 03:01:00,76.0,-99.9,29.91,East,94,4.0,9.0,-999,-99.99,,,-99.99,,2013-07-14 08:01:00,
2013-07-14 03:11:00,77.0,-99.9,29.91,ESE,102,7.0,9.0,-999,-99.99,,,-99.99,,2013-07-14 08:11:00,
2013-07-14 03:22:00,78.0,-99.9,29.90,ESE,112,7.0,8.0,-999,-99.99,,,-99.99,,2013-07-14 08:22:00,
2013-07-14 03:32:00,78.0,-99.9,29.90,ESE,112,7.0,9.0,-999,-99.99,,,-99.99,,2013-07-14 08:32:00,
2013-07-14 03:42:00,78.0,-99.9,29.90,ESE,118,6.0,8.0,-999,-99.99,,,-99.99,,2013-07-14 08:42:00,
2013-07-14 03:53:00,78.0,-99.9,29.90,ESE,114,4.0,6.0,-999,-99.99,,,-99.99,,2013-07-14 08:53:00,
2013-07-14 04:01:00,78.0,-99.9,29.90,ESE,122,5.0,7.0,-999,-99.99,,,-99.99,,2013-07-14 09:01:00,
2013-07-14 04:11:00,78.0,-99.9,29.91,SE,125,6.0,8.0,-999,-99.99,,,-99.99,,2013-07-14 09:11:00,
2013-07-14 04:22:00,78.0,-99.9,29.91,East,86,2.0,4.0,-999,-99.99,,,-99.99,,2013-07-14 09:22:00,
2013-07-14 04:32:00,77.0,-99.9,29.91,East,93,5.0,7.0,-999,-99.99,,,-99.99,,2013-07-14 09:32:00,
2013-07-14 04:42:00,78.0,-99.9,29.92,East,84,3.0,6.0,-999,-99.99,,,-99.99,,2013-07-14 09:42:00,
2013-07-14 04:53:00,77.0,-99.9,29.92,East,98,4.0,7.0,-999,-99.99,,,-99.99,,2013-07-14 09:53:00,
2013-07-14 05:01:00,77.0,-99.9,29.92,North,5,1.0,3.0,-999,-99.99,,,-99.99,,2013-07-14 10:01:00,
2013-07-14 05:12:00,76.0,-99.9,29.92,North,358,1.0,2.0,-999,-99.99,,,-99.99,,2013-07-14 10:12:00,
2013-07-14 05:22:00,75.0,-99.9,29.92,North,-999,-999.0,-999.0,-999,-99.99,,,-99.99,,2013-07-14 10:22:00,
2013-07-14 05:32:00,75.0,-99.9,29.92,ESE,102,1.0,4.0,-999,-99.99,,,-99.99,,2013-07-14 10:32:00,
2013-07-14 05:42:00,75.0,-99.9,29.92,SW,229,0.0,1.0,-999,-99.99,,,-99.99,,2013-07-14 10:42:00,
2013-07-14 05:53:00,75.0,-99.9,29.93,North,357,1.0,3.0,-999,-99.99,,,-99.99,,2013-07-14 10:53:00,
2013-07-14 06:02:00,75.0,-99.9,29.93,NW,307,1.0,1.0,-999,-99.99,,,-99.99,,2013-07-14 11:02:00,
2013-07-14 06:11:00,75.0,-99.9,29.94,SW,219,1.0,2.0,-999,-99.99,,,-99.99,,2013-07-14 11:11:00,
2013-07-14 06:22:00,74.0,-99.9,29.95,North,-999,-999.0,-999.0,-999,-99.99,,,-99.99,,2013-07-14 11:22:00,
2013-07-14 06:32:00,74.0,-99.9,29.94,SW,224,1.0,2.0,-999,-99.99,,,-99.99,,2013-07-14 11:32:00,
2013-07-14 06:43:00,74.0,-99.9,29.95,WSW,238,1.0,2.0,-999,-99.99,,,-99.99,,2013-07-14 11:43:00,
2013-07-14 06:53:00,74.0,-99.9,29.95,SSE,157,1.0,4.0,-999,-99.99,,,-99.99,,2013-07-14 11:53:00,
2013-07-14 07:02:00,74.0,-99.9,29.95,East,97,2.0,5.0,-999,-99.99,,,-99.99,,2013-07-14 12:02:00,
2013-07-14 07:12:00,75.0,-99.9,29.96,East,92,1.0,4.0,-999,-99.99,,,-99.99,,2013-07-14 12:12:00,
2013-07-14 07:22:00,75.0,-99.9,29.95,North,-999,-999.0,-999.0,-999,-99.99,,,-99.99,,2013-07-14 12:22:00,
2013-07-14 07:33:00,75.0,-99.9,29.96,East,81,3.0,11.0,-999,-99.99,,,-99.99,,2013-07-14 12:33:00,
2013-07-14 07:43:00,74.0,-99.9,29.96,ESE,106,3.0,8.0,-999,-99.99,,,-99.99,,2013-07-14 12:43:00,
2013-07-14 07:53:00,74.0,-99.9,29.96,SSE,161,2.0,7.0,-999,-99.99,,,-99.99,,2013-07-14 12:53:00,
2013-07-14 08:01:00,74.0,-99.9,29.96,ENE,71,2.0,7.0,-999,-99.99,,,-99.99,,2013-07-14 13:01:00,
2013-07-14 08:11:00,75.0,-99.9,29.97,East,91,2.0,5.0,-999,-99.99,,,-99.99,,2013-07-14 13:11:00,
2013-07-14 08:22:00,75.0,-99.9,29.97,SSW,195,1.0,4.0,-999,-99.99,,,-99.99,,2013-07-14 13:22:00,
2013-07-14 08:32:00,76.0,-99.9,29.97,SSW,206,2.0,5.0,-999,-99.99,,,-99.99,,2013-07-14 13:32:00,
2013-07-14 08:43:00,76.0,-99.9,29.97,West,278,2.0,4.0,-999,-99.99,,,-99.99,,2013-07-14 13:43:00,
2013-07-14 08:53:00,77.0,-99.9,29.97,North,-999,-999.0,-999.0,-999,-99.99,,,-99.99,,2013-07-14 13:53:00,
2013-07-14 09:02:00,78.0,-99.9,29.97,East,101,3.0,8.0,-999,-99.99,,,-99.99,,2013-07-14 14:02:00,
2013-07-14 09:11:00,78.0,-99.9,29.97,ENE,73,1.0,5.0,-999,-99.99,,,-99.99,,2013-07-14 14:11:00,
2013-07-14 09:23:00,79.0,-99.9,29.98,East,94,2.0,7.0,-999,-99.99,,,-99.99,,2013-07-14 14:23:00,
2013-07-14 09:33:00,79.0,-99.9,29.98,East,80,1.0,8.0,-999,-99.99,,,-99.99,,2013-07-14 14:33:00,
2013-07-14 09:43:00,80.0,-99.9,29.98,East,91,3.0,7.0,-999,-99.99,,,-99.99,,2013-07-14 14:43:00,
2013-07-14 09:53:00,81.0,-99.9,29.98,North,-999,-999.0,-999.0,-999,-99.99,,,-99.99,,2013-07-14 14:53:00,
2013-07-14 10:01:00,80.0,-99.9,29.98,East,86,4.0,9.0,-999,-99.99,,,-99.99,,2013-07-14 15:01:00,
2013-07-14 10:12:00,82.0,-99.9,29.98,ESE,112,2.0,7.0,-999,-99.99,,,-99.99,,2013-07-14 15:12:00,
2013-07-14 10:22:00,81.0,-99.9,29.98,ENE,73,2.0,7.0,-999,-99.99,,,-99.99,,2013-07-14 15:22:00,
2013-07-14 10:32:00,82.0,-99.9,29.98,East,86,2.0,5.0,-999,-99.99,,,-99.99,,2013-07-14 15:32:00,
2013-07-14 10:42:00,81.0,-99.9,29.99,ESE,117,5.0,7.0,-999,-99.99,,,-99.99,,2013-07-14 15:42:00,
2013-07-14 10:53:00,81.0,-99.9,29.99,ESE,117,5.0,10.0,-999,-99.99,,,-99.99,,2013-07-14 15:53:00,
2013-07-14 11:01:00,82.0,-99.9,29.99,East,95,4.0,7.0,-999,-99.99,,,-99.99,,2013-07-14 16:01:00,
2013-07-14 11:11:00,81.0,-99.9,29.99,ESE,107,6.0,9.0,-999,-99.99,,,-99.99,,2013-07-14 16:11:00,
2013-07-14 11:22:00,82.0,-99.9,30.00,ESE,110,4.0,9.0,-999,-99.99,,,-99.99,,2013-07-14 16:22:00,
2013-07-14 11:32:00,82.0,-99.9,30.00,ESE,114,7.0,13.0,-999,-99.99,,,-99.99,,2013-07-14 16:32:00,
2013-07-14 11:43:00,81.0,-99.9,30.01,SSE,154,12.0,14.0,-999,-99.99,,,-99.99,,2013-07-14 16:43:00,
2013-07-14 11:54:00,81.0,-99.9,30.01,North,-999,-999.0,-999.0,-999,-99.99,,,-99.99,,2013-07-14 16:54:00,
2013-07-14 12:03:00,81.0,-99.9,30.01,SSE,152,11.0,14.0,-999,-99.99,,,-99.99,,2013-07-14 17:03:00,
2013-07-14 12:12:00,81.0,-99.9,30.01,SSE,156,10.0,12.0,-999,-99.99,,,-99.99,,2013-07-14 17:12:00,
2013-07-14 12:23:00,81.0,-99.9,30.01,North,-999,-999.0,-999.0,-999,-99.99,,,-99.99,,2013-07-14 17:23:00,
2013-07-14 12:32:00,81.0,-99.9,30.00,SE,144,9.0,10.0,-999,-99.99,,,-99.99,,2013-07-14 17:32:00,
2013-07-14 12:43:00,82.0,-99.9,30.00,SE,137,8.0,11.0,-999,-99.99,,,-99.99,,2013-07-14 17:43:00,
2013-07-14 12:53:00,82.0,-99.9,30.00,SSE,160,10.0,12.0,-999,-99.99,,,-99.99,,2013-07-14 17:53:00,
2013-07-14 13:01:00,82.0,-99.9,30.00,SSE,157,11.0,12.0,-999,-99.99,,,-99.99,,2013-07-14 18:01:00,
2013-07-14 13:11:00,82.0,-99.9,30.00,SSE,157,9.0,12.0,-999,-99.99,,,-99.99,,2013-07-14 18:11:00,
2013-07-14 13:22:00,82.0,-99.9,30.00,North,-999,-999.0,-999.0,-999,-99.99,,,-99.99,,2013-07-14 18:22:00,
2013-07-14 13:32:00,82.0,-99.9,29.99,SSE,154,10.0,12.0,-999,-99.99,,,-99.99,,2013-07-14 18:32:00,
2013-07-14 13:42:00,82.0,-99.9,29.99,SSE,158,11.0,13.0,-999,-99.99,,,-99.99,,2013-07-14 18:42:00,
2013-07-14 13:52:00,82.0,-99.9,29.99,North,-999,-999.0,-999.0,-999,-99.99,,,-99.99,,2013-07-14 18:52:00,
2013-07-14 14:02:00,82.0,-99.9,29.99,SSE,153,10.0,13.0,-999,-99.99,,,-99.99,,2013-07-14 19:02:00,
2013-07-14 14:12:00,82.0,-99.9,29.99,SSE,158,9.0,11.0,-999,-99.99,,,-99.99,,2013-07-14 19:12:00,
2013-07-14 14:22:00,82.0,-99.9,29.99,SSE,166,10.0,11.0,-999,-99.99,,,-99.99,,2013-07-14 19:22:00,
2013-07-14 14:32:00,82.0,-99.9,29.99,SSE,157,10.0,12.0,-999,-99.99,,,-99.99,,2013-07-14 19:32:00,
2013-07-14 14:43:00,82.0,-99.9,29.98,SSE,166,11.0,13.0,-999,-99.99,,,-99.99,,2013-07-14 19:43:00,
2013-07-14 14:53:00,82.0,-99.9,29.99,North,-999,-999.0,-999.0,-999,-99.99,,,-99.99,,2013-07-14 19:53:00,
2013-07-14 15:02:00,83.0,-99.9,29.98,SSE,166,11.0,13.0,-999,-99.99,,,-99.99,,2013-07-14 20:02:00,
2013-07-14 15:11:00,82.0,-99.9,29.98,SSE,153,12.0,14.0,-999,-99.99,,,-99.99,,2013-07-14 20:11:00,
2013-07-14 15:22:00,83.0,-99.9,29.98,SSE,163,12.0,14.0,-999,-99.99,,,-99.99,,2013-07-14 20:22:00,
2013-07-14 15:32:00,82.0,-99.9,29.98,South,177,10.0,13.0,-999,-99.99,,,-99.99,,2013-07-14 20:32:00,
2013-07-14 15:43:00,82.0,-99.9,29.98,South,179,11.0,12.0,-999,-99.99,,,-99.99,,2013-07-14 20:43:00,
2013-07-14 15:53:00,82.0,-99.9,29.97,South,179,11.0,14.0,-999,-99.99,,,-99.99,,2013-07-14 20:53:00,
2013-07-14 16:02:00,82.0,-99.9,29.97,SSE,167,13.0,14.0,-999,-99.99,,,-99.99,,2013-07-14 21:02:00,
2013-07-14 16:11:00,83.0,-99.9,29.97,South,170,13.0,16.0,-999,-99.99,,,-99.99,,2013-07-14 21:11:00,
2013-07-14 16:22:00,83.0,-99.9,29.96,South,173,12.0,14.0,-999,-99.99,,,-99.99,,2013-07-14 21:22:00,
2013-07-14 16:32:00,83.0,-99.9,29.97,South,172,12.0,14.0,-999,-99.99,,,-99.99,,2013-07-14 21:32:00,
2013-07-14 16:43:00,82.0,-99.9,29.96,South,179,10.0,13.0,-999,-99.99,,,-99.99,,2013-07-14 21:43:00,
2013-07-14 16:53:00,83.0,-99.9,29.96,North,-999,-999.0,-999.0,-999,-99.99,,,-99.99,,2013-07-14 21:53:00,
2013-07-14 17:02:00,83.0,-99.9,29.96,South,184,10.0,13.0,-999,-99.99,,,-99.99,,2013-07-14 22:02:00,
2013-07-14 17:11:00,83.0,-99.9,29.96,South,177,11.0,12.0,-999,-99.99,,,-99.99,,2013-07-14 22:11:00,
2013-07-14 17:22:00,83.0,-99.9,29.96,North,-999,-999.0,-999.0,-999,-99.99,,,-99.99,,2013-07-14 22:22:00,
2013-07-14 17:32:00,83.0,-99.9,29.96,South,183,9.0,12.0,-999,-99.99,,,-99.99,,2013-07-14 22:32:00,
2013-07-14 17:42:00,83.0,-99.9,29.96,South,182,9.0,12.0,-999,-99.99,,,-99.99,,2013-07-14 22:42:00,
2013-07-14 17:54:00,84.0,-99.9,29.97,North,-999,-999.0,-999.0,-999,-99.99,,,-99.99,,2013-07-14 22:54:00,
2013-07-14 18:02:00,83.0,-99.9,29.96,South,178,8.0,12.0,-999,-99.99,,,-99.99,,2013-07-14 23:02:00,
2013-07-14 18:11:00,85.0,-99.9,29.96,SW,214,6.0,9.0,-999,-99.99,,,-99.99,,2013-07-14 23:11:00,
2013-07-14 18:22:00,83.0,-99.9,29.96,South,184,7.0,10.0,-999,-99.99,,,-99.99,,2013-07-14 23:22:00,
2013-07-14 18:32:00,84.0,-99.9,29.96,South,178,6.0,9.0,-999,-99.99,,,-99.99,,2013-07-14 23:32:00,
2013-07-14 18:42:00,83.0,-99.9,29.97,South,183,6.0,9.0,-999,-99.99,,,-99.99,,2013-07-14 23:42:00,
2013-07-14 18:53:00,84.0,-99.9,29.97,North,-999,-999.0,-999.0,-999,-99.99,,,-99.99,,2013-07-14 23:53:00,
2013-07-14 19:02:00,84.0,-99.9,29.97,SSW,212,4.0,6.0,-999,-99.99,,,-99.99,,2013-07-15 00:02:00,
2013-07-14 19:11:00,84.0,-99.9,29.97,SW,224,4.0,5.0,-999,-99.99,,,-99.99,,2013-07-15 00:11:00,
2013-07-14 19:22:00,84.0,-99.9,29.98,SW,226,5.0,6.0,-999,-99.99,,,-99.99,,2013-07-15 00:22:00,
2013-07-14 19:32:00,84.0,-99.9,29.98,SW,214,4.0,6.0,-999,-99.99,,,-99.99,,2013-07-15 00:32:00,
2013-07-14 19:43:00,83.0,-99.9,29.98,South,181,5.0,7.0,-999,-99.99,,,-99.99,,2013-07-15 00:43:00,
2013-07-14 19:53:00,83.0,-99.9,29.98,North,-999,-999.0,-999.0,-999,-99.99,,,-99.99,,2013-07-15 00:53:00,
2013-07-14 20:02:00,83.0,-99.9,29.98,South,178,6.0,7.0,-999,-99.99,,,-99.99,,2013-07-15 01:02:00,
2013-07-14 20:12:00,82.0,-99.9,29.98,South,177,5.0,7.0,-999,-99.99,,,-99.99,,2013-07-15 01:12:00,
2013-07-14 20:22:00,82.0,-99.9,29.99,North,-999,-999.0,-999.0,-999,-99.99,,,-99.99,,2013-07-15 01:22:00,
2013-07-14 20:32:00,82.0,-99.9,29.99,SE,144,4.0,5.0,-999,-99.99,,,-99.99,,2013-07-15 01:32:00,
2013-07-14 20:43:00,82.0,-99.9,29.99,ESE,103,4.0,4.0,-999,-99.99,,,-99.99,,2013-07-15 01:43:00,
2013-07-14 20:53:00,82.0,-99.9,30.00,North,-999,-999.0,-999.0,-999,-99.99,,,-99.99,,2013-07-15 01:53:00,
2013-07-14 21:02:00,82.0,-99.9,30.00,SE,129,3.0,4.0,-999,-99.99,,,-99.99,,2013-07-15 02:02:00,
2013-07-14 21:11:00,82.0,-99.9,30.00,ESE,115,3.0,4.0,-999,-99.99,,,-99.99,,2013-07-15 02:11:00,
2013-07-14 21:22:00,82.0,-99.9,30.00,East,96,3.0,3.0,-999,-99.99,,,-99.99,,2013-07-15 02:22:00,
2013-07-14 21:32:00,82.0,-99.9,30.00,SE,125,3.0,3.0,-999,-99.99,,,-99.99,,2013-07-15 02:32:00,
2013-07-14 21:42:00,81.0,-99.9,30.01,SE,140,3.0,4.0,-999,-99.99,,,-99.99,,2013-07-15 02:42:00,
2013-07-14 21:53:00,81.0,-99.9,30.01,SE,125,4.0,5.0,-999,-99.99,,,-99.99,,2013-07-15 02:53:00,
2013-07-14 22:02:00,81.0,-99.9,30.01,ESE,121,4.0,5.0,-999,-99.99,,,-99.99,,2013-07-15 03:02:00,
2013-07-14 22:11:00,81.0,-99.9,30.01,SE,136,4.0,5.0,-999,-99.99,,,-99.99,,2013-07-15 03:11:00,
2013-07-14 22:22:00,82.0,-99.9,30.01,North,-999,-999.0,-999.0,-999,-99.99,,,-99.99,,2013-07-15 03:22:00,
2013-07-14 22:32:00,82.0,-99.9,30.01,SE,143,7.0,8.0,-999,-99.99,,,-99.99,,2013-07-15 03:32:00,
2013-07-14 22:43:00,82.0,-99.9,30.01,North,-999,-999.0,-999.0,-999,-99.99,,,-99.99,,2013-07-15 03:43:00,
2013-07-14 22:53:00,81.0,-99.9,30.02,North,-999,-999.0,-999.0,-999,-99.99,,,-99.99,,2013-07-15 03:53:00,
2013-07-14 23:01:00,81.0,-99.9,30.02,SE,131,4.0,5.0,-999,-99.99,,,-99.99,,2013-07-15 04:01:00,
2013-07-14 23:11:00,81.0,-99.9,30.02,SE,132,5.0,6.0,-999,-99.99,,,-99.99,,2013-07-15 04:11:00,
2013-07-14 23:33:00,81.0,-99.9,30.02,East,87,3.0,3.0,-999,-99.99,,,-99.99,,2013-07-15 04:33:00,
2013-07-14 23:42:00,81.0,-99.9,30.02,East,89,3.0,4.0,-999,-99.99,,,-99.99,,2013-07-15 04:42:00,
2013-07-14 23:54:00,81.0,-99.9,30.02,SE,132,1.0,2.0,-999,-99.99,,,-99.99,,2013-07-15 04:54:00,